Showing default

COSMOS 1670, 15930

Orbit data source: Space-Track

COSMOS 1670, 15930 is a payload satellite owned by VMF (CIS) in LEO that was launched on Thu, 01 Aug 1985 UTC via a TSIKLON-2 launch vehicle from the Tyuratam Missile And Space Complex (TTMTR). Payload-class satellites include a variety of spacecraft equipped with specific instruments for various scientific and technological missions. These include communications satellites like Starlink; space stations such as the ISS; scientific satellites like the Hubble; Earth observation satellites from companies like Planet Labs, Umbra, and HawkEye 360; GPS; miniature CubeSats for education and research; and military/defense satellites.

Loading next visibility...
Identifier
15930, 1985-064A
Orbit
LEO
Country
Flag of CISCIS
Related business
Manufacturer
Kometa
Mission
Defense Sigint
Bus & Motor
US-A REACTOR, Unknown motor
Mass
4,300 kg wet, 1,154 kg dry
Launch date (UTC)
1985-08-01 (40 years ago)
Launch vehicle
TSIKLON-2
Launch site
Tyuratam Missile And Space Complex (TTMTR)
Object type
Payload
Rocket body
Debris
Shape & HBR
Cone + Cyl, 2.9 m
Radar Cross Section
6.586 m², Large (>1 m²)

Expand to show TLE details & history
Last TLE update: 18 hours ago

TLE from 18 hours ago
0 COSMOS 1670
1 15930U 85064A   25260.00219299 -.00000066  00000-0  20755-4 0  9994
2 15930  64.9390 128.8217 0054860 149.4670 210.9603 13.83861372 15957
Epoch: 2025-09-17T00:03Z
TLE epoch observation values (Epoch: 2025-09-17T00:03:09.474Z)
Latitude
-0.00001°
Longitude
131.84782°
Altitude
986.683 km
Speed
7.341 km/s
True Right ascension
08h 35m 17s
True Declination
0° 00' 00"
Sunlit
Object was in daylight at epoch
Visualization orbit readout
Latitude
Unknown
Longitude
Unknown
Altitude
Unknown
Speed
Unknown
Apparent Right ascension
Unknown
Apparent Declination
Unknown
Sunlit
N/A
Visualization observer readout
Local Sidereal Time
10:49:12
Azimuth
Unknown
Elevation
Unknown
Doppler factor
Unknown
Orbital elements
Apogee altitude
989.036 km
Perigee altitude
908.644 km
Semi-major axis
7,326.977 km
Eccentricity
0.00549
Inclination
64.939°
RAAN
128.8217°
Arg. of periapsis
149.467°
True anomaly
210.63879°
Mean anomaly
210.9603°
Eccentric anomaly
210.79936°
Mean motion
3.46064 °/min
Orbital period
104.03 mins
BSTAR
0.000020755
Loading maneuver chart data...
Computing Atmospheric mass density...
Loading historical data...
Loading historical data...
Loading historical data...
Loading historical data...
Loading historical data...
Loading historical data...
Loading historical data...

Documentation

Showing up to 5 results
|